EW8073 Weather Reports


Display with metric or nautical units.
time (UTC)temp
F
wind
direction
speed
MPH
gust
MPH
rain 1hr
in
rain 24hr
in
rain mn
in
humidity
%
barometer
mb
20260508080549 48 53 0.0 0.0 0.00 0.00 0.00 78 1015.0
20260508080043 49 53 0.0 0.0 0.00 0.00 0.00 78 1015.0
20260508075537 49 53 0.0 0.0 0.00 0.00 0.00 77 1015.0
20260508075033 49 53 0.0 0.0 0.00 0.00 0.00 77 1014.8
20260508074526 49 53 0.0 0.0 0.00 0.00 0.00 77 1014.7
20260508074019 50 53 0.0 0.0 0.00 0.00 0.00 76 1014.8
20260508073513 50 53 0.0 0.0 0.00 0.00 0.00 76 1014.7
20260508073009 50 53 0.0 0.0 0.00 0.00 0.00 76 1014.8
20260508072502 50 53 0.0 0.0 0.00 0.00 0.00 75 1015.0
20260508071954 51 53 0.0 0.0 0.00 0.00 0.00 75 1014.8
20260508070940 51 53 0.0 0.0 0.00 0.00 0.00 74 1014.6
20260508070435 52 53 0.0 0.0 0.00 0.00 0.00 74 1014.5
20260508065929 52 53 0.0 0.0 0.00 0.00 0.00 73 1014.4
20260508065423 52 53 0.0 0.0 0.00 0.00 0.00 72 1014.3
20260508064916 52 53 0.0 0.0 0.00 0.00 0.00 72 1014.1
20260508064411 53 53 0.0 0.0 0.00 0.00 0.00 72 1014.1
20260508063910 53 53 0.0 0.0 0.00 0.00 0.00 71 1014.1
20260508062909 53 53 0.0 3.0 0.00 0.00 0.00 70 1014.1
20260508062409 53 52 0.0 0.0 0.00 0.00 0.00 69 1014.3
20260508061908 54 52 0.0 0.0 0.00 0.00 0.00 68 1014.1
20260508060909 54 0 0.0 0.0 0.00 0.00 0.00 67 1014.3
20260508060409 53 0 0.0 3.0 0.00 0.00 0.00 66 1014.8
20260508055912 54 0 0.0 3.0 0.00 0.00 0.00 65 1015.5
20260508054353 54 0 0.0 0.0 0.00 0.00 0.00 63 1014.5
20260508052330 54 0 0.0 0.0 0.00 0.00 0.00 63 1013.8
20260508051823 54 101 0.0 0.0 0.00 0.00 0.00 63 1013.6
20260508051317 54 101 0.0 0.0 0.00 0.00 0.00 62 1013.6
20260508050811 54 101 0.0 2.0 0.00 0.00 0.00 62 1013.4
20260508050306 54 101 0.0 2.0 0.00 0.00 0.00 62 1013.7
20260508045253 55 101 0.0 0.0 0.00 0.00 0.00 61 1013.6
20260508044747 55 101 0.0 0.0 0.00 0.00 0.00 61 1013.6
20260508044241 55 101 0.0 0.0 0.00 0.00 0.00 61 1013.8
20260508043737 55 101 0.0 0.0 0.00 0.00 0.00 60 1013.7
20260508043230 55 101 0.0 0.0 0.00 0.00 0.00 60 1013.7
20260508042723 55 101 0.0 0.0 0.00 0.00 0.00 59 1014.0
20260508042218 56 101 0.0 0.0 0.00 0.00 0.00 59 1014.1
20260508041711 56 101 0.0 0.0 0.00 0.00 0.00 58 1014.0
20260508041206 56 101 0.0 0.0 0.00 0.00 0.00 58 1013.7
20260508040700 56 102 0.0 0.0 0.00 0.00 0.00 57 1013.6
20260508040154 57 102 0.0 0.0 0.00 0.00 0.00 57 1013.3
20260508034636 58 102 0.0 1.0 0.00 0.00 0.00 54 1013.3
20260508034130 58 101 0.0 1.0 0.00 0.00 0.00 53 1013.6
20260508033624 58 101 0.0 0.0 0.00 0.00 0.00 53 1013.6
20260508033118 59 101 0.0 0.0 0.00 0.00 0.00 51 1013.6
20260508032612 59 101 0.0 4.0 0.00 0.00 0.00 50 1013.7
20260508032105 59 101 1.0 5.0 0.00 0.00 0.00 49 1013.4
20260508031600 59 101 1.0 5.0 0.00 0.00 0.00 48 1013.2
20260508031053 60 72 0.0 0.0 0.00 0.00 0.00 47 1013.1
20260508030548 60 346 0.0 0.0 0.00 0.00 0.00 47 1013.0
20260508030042 60 344 0.0 0.0 0.00 0.00 0.00 47 1013.0
20260508025535 60 340 0.0 0.0 0.00 0.00 0.00 45 1012.9
20260508025029 61 340 0.0 0.0 0.00 0.00 0.00 44 1012.7
20260508024523 61 340 0.0 0.0 0.00 0.00 0.00 44 1012.7
20260508024018 61 340 0.0 0.0 0.00 0.00 0.00 43 1012.6
20260508023015 61 340 0.0 0.0 0.00 0.00 0.00 43 1012.5
20260508022516 62 340 0.0 0.0 0.00 0.00 0.00 42 1012.3
20260508022015 62 340 0.0 0.0 0.00 0.00 0.00 42 1012.2
20260508021515 62 340 0.0 0.0 0.00 0.00 0.00 42 1012.0
20260508021012 62 340 0.0 0.0 0.00 0.00 0.00 41 1012.2
20260508020511 62 340 0.0 4.0 0.00 0.00 0.00 41 1012.3
20260508020011 62 340 1.0 5.0 0.00 0.00 0.00 40 1012.3
20260508015510 63 355 1.0 5.0 0.00 0.00 0.00 40 1012.3
20260508015012 63 22 0.0 0.0 0.00 0.00 0.00 40 1012.3
20260508014012 64 36 1.0 5.0 0.00 0.00 0.00 38 1011.9
20260508013507 64 26 0.0 5.0 0.00 0.00 0.00 38 1011.7
20260508013010 64 94 0.0 3.0 0.00 0.00 0.00 37 1011.6
20260508012507 65 96 1.0 4.0 0.00 0.00 0.00 37 1011.6
20260508012007 65 69 2.0 8.0 0.00 0.00 0.00 36 1011.5
20260508010507 67 342 0.0 2.0 0.00 0.00 0.00 32 1011.1
20260508010007 67 342 0.0 2.0 0.00 0.00 0.00 31 1011.0
20260508005506 68 342 0.0 0.0 0.00 0.00 0.00 31 1010.9
20260508005003 68 342 0.0 0.0 0.00 0.00 0.00 31 1010.9
20260508004502 68 342 0.0 0.0 0.00 0.00 0.00 30 1010.8
20260508004002 68 342 0.0 0.0 0.00 0.00 0.00 30 1010.8
20260508003503 68 342 0.0 2.0 0.00 0.00 0.00 30 1010.8
20260508003002 68 342 0.0 2.0 0.00 0.00 0.00 29 1010.6
20260508002502 68 342 0.0 0.0 0.00 0.00 0.00 30 1010.8
20260508002004 68 342 0.0 0.0 0.00 0.00 0.00 29 1010.6
20260508001003 68 342 0.0 0.0 0.00 0.00 0.00 28 1010.6
20260508000457 68 342 0.0 0.0 0.00 0.00 0.00 29 1010.6
20260507235951 68 342 0.0 0.0 0.00 0.00 0.00 29 1010.8
20260507235444 68 342 0.0 0.0 0.00 0.00 0.00 29 1010.6
20260507234938 69 342 0.0 4.0 0.00 0.00 0.00 28 1010.8
20260507233931 69 341 0.0 3.0 0.00 0.00 0.00 26 1010.6
20260507232426 69 277 1.0 3.0 0.00 0.00 0.00 26 1010.8
20260507231926 69 277 1.0 5.0 0.00 0.00 0.00 26 1010.8
20260507231422 69 297 2.0 5.0 0.00 0.00 0.00 26 1010.8
20260507230422 70 293 2.0 6.0 0.00 0.00 0.00 24 1011.0
20260507225922 70 308 0.0 5.0 0.00 0.00 0.00 24 1011.0
20260507225423 71 330 0.0 5.0 0.00 0.00 0.00 24 1011.0
20260507224420 72 294 2.0 7.0 0.00 0.00 0.00 23 1011.0
20260507223918 72 259 3.0 12.0 0.00 0.00 0.00 24 1011.1
20260507222418 72 313 3.0 11.0 0.00 0.00 0.00 23 1011.1
20260507221918 73 278 3.0 8.0 0.00 0.00 0.00 24 1011.1
20260507221416 72 200 3.0 8.0 0.00 0.00 0.00 24 1011.2
20260507220411 72 230 4.0 9.0 0.00 0.00 0.00 25 1011.2
20260507215400 71 355 2.0 8.0 0.00 0.00 0.00 26 1011.5
20260507214854 69 257 2.0 7.0 0.00 0.00 0.00 27 1011.6
20260507214348 69 244 3.0 11.0 0.00 0.00 0.00 27 1011.7
20260507213842 69 216 3.0 11.0 0.00 0.00 0.00 25 1011.8
20260507212830 71 225 4.0 11.0 0.00 0.00 0.00 25 1011.9
20260507212324 71 254 4.0 12.0 0.00 0.00 0.00 25 1011.9
20260507211818 72 291 4.0 12.0 0.00 0.00 0.00 26 1012.0
20260507211312 72 280 4.0 10.0 0.00 0.00 0.00 24 1012.0
20260507210806 72 247 4.0 10.0 0.00 0.00 0.00 26 1012.2
20260507210300 72 263 4.0 11.0 0.00 0.00 0.00 25 1012.2
20260507205755 71 296 4.0 12.0 0.00 0.00 0.00 26 1012.2
20260507205248 72 223 4.0 12.0 0.00 0.00 0.00 25 1012.3
20260507204742 71 355 4.0 11.0 0.00 0.00 0.00 27 1012.3
20260507204236 71 254 4.0 11.0 0.00 0.00 0.00 26 1012.4
20260507203731 71 306 4.0 11.0 0.00 0.00 0.00 25 1012.4
20260507203224 70 234 4.0 9.0 0.00 0.00 0.00 25 1012.5
20260507202718 71 9 4.0 11.0 0.00 0.00 0.00 26 1012.6
20260507202212 71 197 3.0 11.0 0.00 0.00 0.00 26 1012.6
20260507201708 70 9 3.0 9.0 0.00 0.00 0.00 28 1012.7
20260507201200 70 80 4.0 12.0 0.00 0.00 0.00 26 1012.9
20260507200655 70 259 4.0 12.0 0.00 0.00 0.00 27 1012.9
20260507200148 69 251 3.0 10.0 0.00 0.00 0.00 27 1012.9
20260507195642 69 5 3.0 11.0 0.00 0.00 0.00 28 1013.1
20260507195136 68 336 4.0 11.0 0.00 0.00 0.00 28 1013.2
20260507194630 69 226 4.0 11.0 0.00 0.00 0.00 28 1013.2
20260507194125 68 249 4.0 11.0 0.00 0.00 0.00 28 1013.2
20260507193618 68 273 4.0 10.0 0.00 0.00 0.00 30 1013.2
20260507193112 67 250 4.0 11.0 0.00 0.00 0.00 29 1013.1
20260507192606 67 246 5.0 15.0 0.00 0.00 0.00 31 1013.1
20260507192100 67 214 4.0 15.0 0.00 0.00 0.00 29 1013.2
20260507191554 67 334 3.0 11.0 0.00 0.00 0.00 30 1013.2
20260507191047 67 245 3.0 10.0 0.00 0.00 0.00 31 1013.4
20260507190541 67 36 3.0 10.0 0.00 0.00 0.00 30 1013.6
20260507190037 66 257 3.0 11.0 0.00 0.00 0.00 30 1013.6
20260507185531 66 217 2.0 12.0 0.00 0.00 0.00 30 1013.7
20260507185024 66 127 2.0 12.0 0.00 0.00 0.00 33 1013.8
20260507184519 66 242 2.0 5.0 0.00 0.00 0.00 34 1013.8
20260507184012 65 279 3.0 7.0 0.00 0.00 0.00 33 1013.8
20260507183505 65 336 3.0 7.0 0.00 0.00 0.00 33 1013.9
20260507183001 65 286 3.0 11.0 0.00 0.00 0.00 32 1013.9
20260507182454 65 282 3.0 11.0 0.00 0.00 0.00 31 1013.9
20260507181443 65 308 3.0 8.0 0.00 0.00 0.00 33 1014.0
20260507180936 65 333 3.0 10.0 0.00 0.00 0.00 32 1014.0
20260507180431 65 220 3.0 10.0 0.00 0.00 0.00 34 1014.0
20260507175924 65 242 3.0 8.0 0.00 0.00 0.00 35 1013.9
20260507175418 65 242 3.0 8.0 0.00 0.00 0.00 35 1013.9
20260507174407 65 250 2.0 5.0 0.00 0.00 0.00 37 1014.1
20260507172851 64 243 2.0 7.0 0.00 0.00 0.00 36 1014.3
20260507172351 64 248 1.0 5.0 0.00 0.00 0.00 36 1014.4
20260507171852 64 246 1.0 5.0 0.00 0.00 0.00 38 1014.3
20260507171352 63 246 2.0 6.0 0.00 0.00 0.00 38 1014.5
20260507170852 63 244 2.0 8.0 0.00 0.00 0.00 36 1014.4
20260507170353 63 263 2.0 8.0 0.00 0.00 0.00 37 1014.4
20260507165852 62 267 2.0 8.0 0.00 0.00 0.00 36 1014.4
20260507165351 62 248 3.0 9.0 0.00 0.00 0.00 38 1014.4
20260507164848 62 254 3.0 9.0 0.00 0.00 0.00 38 1014.5
20260507164347 62 246 4.0 9.0 0.00 0.00 0.00 38 1014.5
20260507163347 62 243 2.0 6.0 0.00 0.00 0.00 38 1014.6
20260507162847 62 258 2.0 10.0 0.00 0.00 0.00 40 1014.6
20260507162350 61 261 3.0 10.0 0.00 0.00 0.00 39 1014.6
20260507161844 60 249 1.0 7.0 0.00 0.00 0.00 43 1014.7
20260507161343 59 249 1.0 5.0 0.00 0.00 0.00 46 1014.7
20260507160843 58 250 3.0 7.0 0.00 0.00 0.00 46 1014.7
20260507160343 58 265 2.0 8.0 0.00 0.00 0.00 46 1014.8
20260507155844 57 261 2.0 8.0 0.00 0.00 0.00 46 1014.8
20260507155344 56 264 1.0 7.0 0.00 0.00 0.00 47 1014.7
20260507154844 56 213 1.0 4.0 0.00 0.00 0.00 49 1014.8
20260507153340 54 261 2.0 8.0 0.00 0.00 0.00 49 1015.2
20260507152840 53 228 1.0 4.0 0.00 0.00 0.00 51 1015.2
20260507152339 53 228 1.0 4.0 0.00 0.00 0.00 52 1015.2
20260507151840 53 229 1.0 4.0 0.00 0.00 0.00 52 1015.2
20260507151339 52 228 1.0 3.0 0.00 0.00 0.00 54 1015.2
20260507145839 51 220 0.0 3.0 0.00 0.00 0.00 54 1015.3
20260507144337 50 229 1.0 4.0 0.00 0.00 0.00 55 1015.3
20260507143839 49 229 1.0 3.0 0.00 0.00 0.00 58 1015.3
20260507143339 49 229 0.0 2.0 0.00 0.00 0.00 60 1015.3
20260507142838 48 230 0.0 2.0 0.00 0.00 0.00 61 1015.2
20260507142338 48 230 0.0 0.0 0.00 0.00 0.00 63 1015.2
20260507141837 47 230 0.0 0.0 0.00 0.00 0.00 65 1015.2
20260507141335 46 231 0.0 0.0 0.00 0.00 0.00 66 1015.2
20260507140331 45 231 0.0 0.0 0.00 0.00 0.00 65 1015.3
20260507135831 44 231 0.0 0.0 0.00 0.00 0.00 65 1015.2
20260507135332 44 231 0.0 0.0 0.00 0.00 0.00 66 1015.3
20260507134332 43 231 0.0 0.0 0.00 0.00 0.00 66 1015.3
20260507133829 43 231 0.0 0.0 0.00 0.00 0.00 66 1015.3
20260507133331 42 232 0.0 0.0 0.00 0.00 0.00 67 1015.3
20260507132824 41 232 0.0 0.0 0.00 0.00 0.00 69 1015.2
20260507132318 40 232 0.0 0.0 0.00 0.00 0.00 71 1015.3
20260507131812 40 232 0.0 0.0 0.00 0.00 0.00 71 1015.1
20260507131307 40 232 0.0 0.0 0.00 0.00 0.00 70 1015.1
20260507130801 39 232 0.0 0.0 0.00 0.00 0.00 70 1015.0
20260507130255 39 232 0.0 2.0 0.00 0.00 0.00 70 1015.0
20260507125748 38 232 0.0 2.0 0.00 0.00 0.00 70 1015.0
20260507125242 38 232 0.0 2.0 0.00 0.00 0.00 70 1015.0
20260507124230 37 236 0.0 0.0 0.00 0.00 0.00 71 1014.7
20260507123725 37 236 0.0 0.0 0.00 0.00 0.00 72 1014.7
20260507123218 36 236 0.0 0.0 0.00 0.00 0.00 72 1014.6
20260507122713 36 235 0.0 0.0 0.00 0.00 0.00 72 1014.6
20260507122207 36 235 0.0 0.0 0.00 0.00 0.00 72 1014.6
20260507121659 36 235 0.0 0.0 0.00 0.00 0.00 72 1014.5
20260507121153 36 235 0.0 0.0 0.00 0.00 0.00 72 1014.6
20260507120142 36 235 0.0 2.0 0.00 0.00 0.00 72 1014.7
20260507115637 36 235 0.0 2.0 0.00 0.00 0.00 72 1014.6
20260507115131 36 235 0.0 2.0 0.00 0.00 0.00 72 1014.6
20260507114627 36 237 0.0 2.0 0.00 0.00 0.00 72 1014.6
20260507114119 36 237 0.0 2.0 0.00 0.00 0.00 72 1014.6
20260507113613 36 236 0.0 3.0 0.00 0.00 0.00 72 1014.6
20260507113106 36 236 1.0 3.0 0.00 0.00 0.00 72 1014.5
20260507112600 36 236 1.0 3.0 0.00 0.00 0.00 73 1014.5
20260507112054 36 236 1.0 4.0 0.00 0.00 0.00 73 1014.4
20260507111548 36 236 0.0 4.0 0.00 0.00 0.00 73 1014.5
20260507110536 36 236 1.0 4.0 0.00 0.00 0.00 73 1014.4
20260507105524 35 236 0.0 3.0 0.00 0.00 0.00 73 1014.5
20260507105018 35 234 0.0 4.0 0.00 0.00 0.00 73 1014.6
20260507104512 36 233 0.0 4.0 0.00 0.00 0.00 73 1014.6
20260507104006 36 233 0.0 0.0 0.00 0.00 0.00 73 1014.5
20260507103500 36 234 0.0 0.0 0.00 0.00 0.00 73 1014.5
20260507102954 36 234 0.0 0.0 0.00 0.00 0.00 74 1014.5
20260507102448 35 234 0.0 0.0 0.00 0.00 0.00 74 1014.7
20260507101436 35 234 0.0 0.0 0.00 0.00 0.00 75 1015.0
20260507100931 35 234 0.0 0.0 0.00 0.00 0.00 75 1014.8
20260507100424 35 234 0.0 0.0 0.00 0.00 0.00 76 1014.7
20260507094906 35 234 0.0 0.0 0.00 0.00 0.00 76 1015.1
20260507094401 35 233 0.0 0.0 0.00 0.00 0.00 76 1015.2
20260507093855 35 233 0.0 0.0 0.00 0.00 0.00 76 1015.2
20260507092842 35 233 0.0 0.0 0.00 0.00 0.00 77 1015.1
20260507092336 35 233 0.0 0.0 0.00 0.00 0.00 77 1015.1
20260507091325 35 233 0.0 0.0 0.00 0.00 0.00 78 1015.2
20260507090818 35 233 0.0 0.0 0.00 0.00 0.00 78 1015.2
20260507085807 35 233 0.0 0.0 0.00 0.00 0.00 78 1015.2
20260507085301 35 233 0.0 2.0 0.00 0.00 0.00 79 1015.1
20260507084754 35 233 0.0 2.0 0.00 0.00 0.00 79 1015.0
20260507084248 35 233 0.0 1.0 0.00 0.00 0.00 80 1015.1
20260507083742 35 233 0.0 3.0 0.00 0.00 0.00 80 1015.1
20260507083236 35 233 0.0 3.0 0.00 0.00 0.00 81 1015.0
20260507082730 35 238 0.0 0.0 0.00 0.00 0.00 82 1015.1
20260507082224 35 238 0.0 0.0 0.00 0.00 0.00 82 1015.2
20260507081719 35 238 0.0 0.0 0.00 0.00 0.00 83 1015.3
20260507081212 34 238 0.0 0.0 0.00 0.00 0.00 83 1015.2